EA5AFP-10 Weather Reports


Display with metric or nautical units.
time (UTC)temp
F
wind
direction
speed
MPH
gust
MPH
rain 1hr
in
rain 24hr
in
rain mn
in
humidity
%
barometer
mb
20260831053520 70 292 2.0 3.0 0.00 0.00 0.00 9 1012.1
20260831053107 70 270 3.0 4.0 0.00 0.00 0.00 9 1012.1
20260831052701 71 292 2.0 3.0 0.00 0.00 0.00 9 1012.1
20260831052446 71 292 3.0 3.0 0.00 0.00 0.00 9 1012.2
20260831052042 70 292 2.0 2.0 0.00 0.00 0.00 9 1012.1
20260831051529 70 292 2.0 2.0 0.00 0.00 0.00 9 1012.2
20260831051052 71 292 3.0 3.0 0.00 0.00 0.00 9 1012.2
20260831050601 71 292 3.0 3.0 0.00 0.00 0.00 9 1012.1
20260831050529 71 292 3.0 3.0 0.00 0.00 0.00 9 1012.1
20260831050113 70 292 2.0 3.0 0.00 0.00 0.00 9 1012.2
20260831045702 71 292 3.0 3.0 0.00 0.00 0.00 9 1012.2
20260831045424 71 292 3.0 3.0 0.00 0.00 0.00 9 1012.1
20260831045015 71 292 3.0 4.0 0.00 0.00 0.00 9 1012.2
20260831044530 71 292 3.0 4.0 0.00 0.00 0.00 9 1012.1
20260831044057 71 292 2.0 3.0 0.00 0.00 0.00 9 1012.1
20260831043608 71 292 3.0 4.0 0.00 0.00 0.00 9 1012.2
20260831043121 71 292 3.0 4.0 0.00 0.00 0.00 9 1012.0
20260831042706 70 270 3.0 4.0 0.00 0.00 0.00 9 1012.0
20260831042435 70 270 2.0 2.0 0.00 0.00 0.00 9 1012.0
20260831042231 70 270 2.0 3.0 0.00 0.00 0.00 9 1012.1
20260831041830 70 270 3.0 3.0 0.00 0.00 0.00 9 1012.1
20260831041435 70 270 2.0 2.0 0.00 0.00 0.00 9 1012.1
20260831041403 70 270 2.0 3.0 0.00 0.00 0.00 9 1012.1
20260831040945 70 270 2.0 3.0 0.00 0.00 0.00 9 1012.1
20260831040513 70 270 2.0 2.0 0.00 0.00 0.00 9 1012.2
20260831040112 71 270 2.0 2.0 0.00 0.00 0.00 9 1012.1
20260831035703 71 292 3.0 3.0 0.00 0.00 0.00 9 1012.2
20260831035347 71 270 3.0 3.0 0.00 0.00 0.00 9 1012.2
20260831034932 71 292 3.0 3.0 0.00 0.00 0.00 9 1012.3
20260831034442 71 270 2.0 2.0 0.00 0.00 0.00 9 1012.2
20260831034036 70 292 1.0 2.0 0.00 0.00 0.00 9 1012.1
20260831033627 70 292 2.0 3.0 0.00 0.00 0.00 9 1012.0
20260831033209 70 292 2.0 2.0 0.00 0.00 0.00 9 1012.1
20260831032759 70 292 3.0 3.0 0.00 0.00 0.00 9 1012.0
20260831032506 70 292 2.0 2.0 0.00 0.00 0.00 9 1012.0
20260831032313 71 292 3.0 3.0 0.00 0.00 0.00 9 1012.0
20260831031903 71 292 2.0 3.0 0.00 0.00 0.00 9 1012.2
20260831031545 71 270 2.0 2.0 0.00 0.00 0.00 9 1012.1
20260831031451 70 270 1.0 2.0 0.00 0.00 0.00 9 1012.0
20260831031017 71 270 1.0 1.0 0.00 0.00 0.00 9 1012.0
20260831030647 71 270 1.0 2.0 0.00 0.00 0.00 9 1012.1
20260831030603 71 270 2.0 2.0 0.00 0.00 0.00 9 1012.0
20260831030155 71 0 0.0 1.0 0.00 0.00 0.00 9 1012.1
20260831025704 71 270 0.0 1.0 0.00 0.00 0.00 9 1012.0
20260831025516 71 270 0.0 1.0 0.00 0.00 0.00 9 1012.0
20260831025411 72 270 0.0 1.0 0.00 0.00 0.00 9 1012.1
20260831025040 72 270 1.0 2.0 0.00 0.00 0.00 9 1012.1
20260831024528 72 0 0.0 1.0 0.00 0.00 0.00 9 1011.9
20260831024133 72 270 0.0 1.0 0.00 0.00 0.00 9 1012.0
20260831023638 72 270 1.0 2.0 0.00 0.00 0.00 9 1012.0
20260831023211 72 270 2.0 3.0 0.00 0.00 0.00 9 1012.1
20260831022746 72 270 2.0 2.0 0.00 0.00 0.00 9 1012.2
20260831022353 72 270 2.0 3.0 0.00 0.00 0.00 9 1012.2
20260831021933 72 270 2.0 2.0 0.00 0.00 0.00 9 1012.2
20260831021515 72 270 3.0 3.0 0.00 0.00 0.00 9 1012.1
20260831021030 73 292 2.0 3.0 0.00 0.00 0.00 9 1012.1
20260831020613 72 247 3.0 3.0 0.00 0.00 0.00 9 1012.2
20260831020148 73 270 2.0 2.0 0.00 0.00 0.00 9 1012.2
20260831015653 73 292 2.0 2.0 0.00 0.00 0.00 9 1012.2
20260831015453 73 292 2.0 2.0 0.00 0.00 0.00 9 1012.1
20260831015002 73 270 2.0 2.0 0.00 0.00 0.00 9 1012.2
20260831014543 73 292 1.0 2.0 0.00 0.00 0.00 9 1012.1
20260831014107 73 292 2.0 2.0 0.00 0.00 0.00 9 1012.3
20260831013705 73 292 2.0 2.0 0.00 0.00 0.00 9 1012.2
20260831013222 73 0 0.0 0.0 0.00 0.00 0.00 9 1012.2
20260831012758 73 0 0.0 0.0 0.00 0.00 0.00 9 1012.2
20260831012423 73 0 0.0 0.0 0.00 0.00 0.00 9 1012.2
20260831011959 73 292 2.0 2.0 0.00 0.00 0.00 9 1012.2
20260831011507 73 292 1.0 2.0 0.00 0.00 0.00 9 1012.2
20260831011042 73 0 0.0 0.0 0.00 0.00 0.00 9 1012.2
20260831010622 73 0 0.0 0.0 0.00 0.00 0.00 9 1012.3
20260831005703 72 0 0.0 0.0 0.00 0.00 0.00 9 1012.2
20260831005404 72 0 0.0 0.0 0.00 0.00 0.00 9 1012.2
20260831004909 73 0 0.0 0.0 0.00 0.00 0.00 9 1012.1
20260831004436 72 0 0.0 0.0 0.00 0.00 0.00 9 1012.3
20260831004034 73 0 0.0 0.0 0.00 0.00 0.00 9 1012.1
20260831003614 73 247 0.0 2.0 0.00 0.00 0.00 9 1012.2
20260831003149 72 0 0.0 0.0 0.00 0.00 0.00 9 1012.1
20260831002654 73 0 0.0 1.0 0.00 0.00 0.00 9 1012.1
20260831002541 73 0 0.0 1.0 0.00 0.00 0.00 9 1012.1
20260831002427 73 0 0.0 1.0 0.00 0.00 0.00 9 1012.1
20260831002021 73 0 0.0 0.0 0.00 0.00 0.00 9 1012.0
20260831001624 73 0 0.0 0.0 0.00 0.00 0.00 9 1012.1
20260831001547 73 0 0.0 0.0 0.00 0.00 0.00 9 1012.2
20260831001106 73 0 0.0 0.0 0.00 0.00 0.00 9 1012.0
20260831000623 73 315 0.0 2.0 0.00 0.00 0.00 9 1012.1
20260831000206 73 315 1.0 2.0 0.00 0.00 0.00 9 1012.3
20260830235753 73 315 0.0 1.0 0.00 0.00 0.00 9 1012.2
20260830235543 73 315 1.0 1.0 0.00 0.00 0.00 9 1012.2
20260830235114 74 315 1.0 3.0 0.00 0.00 0.00 9 1012.3
20260830234700 74 315 1.0 3.0 0.00 0.00 0.00 9 1012.2
20260830234629 74 315 1.0 3.0 0.00 0.00 0.00 9 1012.2
20260830234207 74 292 2.0 2.0 0.00 0.00 0.00 9 1012.2
20260830233719 74 292 2.0 2.0 0.00 0.00 0.00 9 1012.2
20260830233250 74 315 2.0 3.0 0.00 0.00 0.00 9 1012.2
20260830232800 74 292 2.0 3.0 0.00 0.00 0.00 9 1012.3
20260830232621 74 315 1.0 2.0 0.00 0.00 0.00 9 1012.2
20260830232157 75 315 2.0 3.0 0.00 0.00 0.00 9 1012.1
20260830231741 75 292 4.0 6.0 0.00 0.00 0.00 9 1012.1
20260830231710 75 292 5.0 6.0 0.00 0.00 0.00 9 1012.1
20260830231230 75 315 3.0 4.0 0.00 0.00 0.00 9 1012.1
20260830230822 75 292 3.0 4.0 0.00 0.00 0.00 9 1012.1
20260830230800 75 292 3.0 4.0 0.00 0.00 0.00 9 1012.2
20260830230329 75 292 2.0 3.0 0.00 0.00 0.00 9 1012.1
20260830225837 75 315 2.0 3.0 0.00 0.00 0.00 8 1012.2
20260830225835 75 315 2.0 3.0 0.00 0.00 0.00 8 1012.2
20260830225448 75 292 3.0 4.0 0.00 0.00 0.00 8 1012.2
20260830225306 75 315 3.0 4.0 0.00 0.00 0.00 8 1012.3
20260830225007 75 315 2.0 3.0 0.00 0.00 0.00 8 1012.1
20260830224518 75 315 3.0 3.0 0.00 0.00 0.00 8 1012.1
20260830224421 75 315 3.0 4.0 0.00 0.00 0.00 8 1012.0
20260830224021 75 292 3.0 4.0 0.00 0.00 0.00 8 1012.0
20260830223616 75 315 3.0 4.0 0.00 0.00 0.00 8 1012.1
20260830223557 75 315 3.0 3.0 0.00 0.00 0.00 8 1012.1
20260830223145 75 315 3.0 4.0 0.00 0.00 0.00 8 1012.2
20260830222717 76 292 6.0 9.0 0.00 0.00 0.00 8 1012.1
20260830222714 76 292 6.0 9.0 0.00 0.00 0.00 8 1012.1
20260830222403 76 292 5.0 6.0 0.00 0.00 0.00 8 1012.1
20260830221944 76 292 6.0 6.0 0.00 0.00 0.00 8 1012.0
20260830221525 76 292 5.0 6.0 0.00 0.00 0.00 8 1012.0
20260830221040 75 315 5.0 6.0 0.00 0.00 0.00 8 1012.0
20260830220624 76 292 4.0 6.0 0.00 0.00 0.00 8 1011.9
20260830220158 77 292 6.0 6.0 0.00 0.00 0.00 8 1012.0
20260830215704 77 270 7.0 9.0 0.00 0.00 0.00 8 1012.0
20260830215508 77 270 7.0 9.0 0.00 0.00 0.00 8 1011.9
20260830215012 77 292 5.0 6.0 0.00 0.00 0.00 8 1012.0
20260830214524 76 292 5.0 6.0 0.00 0.00 0.00 8 1012.0
20260830214107 75 292 3.0 3.0 0.00 0.00 0.00 8 1011.9
20260830213607 75 292 4.0 6.0 0.00 0.00 0.00 8 1011.8
20260830213117 75 292 3.0 4.0 0.00 0.00 0.00 8 1011.7
20260830212704 76 315 3.0 6.0 0.00 0.00 0.00 8 1011.7
20260830212357 76 292 4.0 6.0 0.00 0.00 0.00 8 1011.8
20260830211938 76 315 3.0 6.0 0.00 0.00 0.00 8 1011.8
20260830211650 76 292 4.0 6.0 0.00 0.00 0.00 8 1011.7
20260830211519 76 292 4.0 6.0 0.00 0.00 0.00 8 1011.7
20260830211035 76 292 3.0 4.0 0.00 0.00 0.00 8 1011.6
20260830210650 76 315 3.0 4.0 0.00 0.00 0.00 8 1011.7
20260830210618 76 315 3.0 4.0 0.00 0.00 0.00 8 1011.7
20260830210153 77 292 3.0 4.0 0.00 0.00 0.00 8 1011.6
20260830205658 77 315 5.0 6.0 0.00 0.00 0.00 8 1011.3
20260830205603 77 315 5.0 6.0 0.00 0.00 0.00 8 1011.3
20260830205530 77 315 5.0 6.0 0.00 0.00 0.00 8 1011.3
20260830205049 77 315 5.0 6.0 0.00 0.00 0.00 8 1011.3
20260830204616 77 337 4.0 6.0 0.00 0.00 0.00 8 1011.2
20260830204600 77 337 4.0 6.0 0.00 0.00 0.00 8 1011.2
20260830204129 77 315 4.0 4.0 0.00 0.00 0.00 8 1011.4
20260830203745 77 315 6.0 8.0 0.00 0.00 0.00 8 1011.1
20260830203710 77 315 6.0 8.0 0.00 0.00 0.00 8 1011.1
20260830203245 77 315 5.0 8.0 0.00 0.00 0.00 8 1011.1
20260830202754 77 315 6.0 8.0 0.00 0.00 0.00 8 1011.0
20260830202750 77 315 6.0 8.0 0.00 0.00 0.00 8 1011.0
20260830202339 77 292 5.0 6.0 0.00 0.00 0.00 8 1010.8
20260830201921 78 315 6.0 9.0 0.00 0.00 0.00 8 1010.8
20260830201459 78 292 7.0 9.0 0.00 0.00 0.00 8 1010.6
20260830201034 78 337 6.0 9.0 0.00 0.00 0.00 8 1010.5
20260830200604 78 292 7.0 9.0 0.00 0.00 0.00 8 1010.6
20260830200119 78 315 6.0 8.0 0.00 0.00 0.00 8 1010.5
20260830195654 78 292 6.0 8.0 0.00 0.00 0.00 7 1010.5
20260830195438 78 292 6.0 8.0 0.00 0.00 0.00 7 1010.4
20260830194956 78 292 6.0 9.0 0.00 0.00 0.00 7 1010.4
20260830194506 79 292 7.0 10.0 0.00 0.00 0.00 7 1010.3
20260830194033 79 292 6.0 9.0 0.00 0.00 0.00 7 1010.1
20260830193539 79 337 6.0 8.0 0.00 0.00 0.00 7 1010.0
20260830193113 79 292 6.0 8.0 0.00 0.00 0.00 7 1010.0
20260830192702 80 315 6.0 9.0 0.00 0.00 0.00 7 1009.8
20260830192359 80 315 6.0 8.0 0.00 0.00 0.00 7 1009.9
20260830191922 80 292 6.0 8.0 0.00 0.00 0.00 7 1009.7
20260830191438 80 315 5.0 6.0 0.00 0.00 0.00 6 1009.6
20260830191014 80 292 6.0 9.0 0.00 0.00 0.00 6 1009.6
20260830190544 81 292 5.0 6.0 0.00 0.00 0.00 6 1009.6
20260830190059 81 292 4.0 6.0 0.00 0.00 0.00 6 1009.5
20260830185634 81 292 2.0 3.0 0.00 0.00 0.00 6 1009.5
20260830185408 81 292 2.0 3.0 0.00 0.00 0.00 6 1009.4
20260830185006 82 135 0.0 1.0 0.00 0.00 0.00 6 1009.5
20260830184530 82 0 0.0 1.0 0.00 0.00 0.00 6 1009.3
20260830184059 82 0 0.0 1.0 0.00 0.00 0.00 6 1009.3
20260830183657 82 0 0.0 0.0 0.00 0.00 0.00 6 1009.3
20260830183641 82 0 0.0 0.0 0.00 0.00 0.00 6 1009.2
20260830183214 82 0 0.0 0.0 0.00 0.00 0.00 6 1009.4
20260830182751 82 90 0.0 1.0 0.00 0.00 0.00 6 1009.1
20260830182749 82 90 0.0 1.0 0.00 0.00 0.00 6 1009.1
20260830182449 83 67 2.0 2.0 0.00 0.00 0.00 6 1009.2
20260830182319 83 90 2.0 2.0 0.00 0.00 0.00 6 1009.2
20260830181950 84 0 0.0 0.0 0.00 0.00 0.00 6 1009.3
20260830181442 84 0 0.0 1.0 0.00 0.00 0.00 6 1009.1
20260830181044 85 0 0.0 1.0 0.00 0.00 0.00 6 1009.2
20260830180614 86 0 0.0 0.0 0.00 0.00 0.00 5 1009.1
20260830180556 86 0 0.0 1.0 0.00 0.00 0.00 5 1009.0
20260830180129 86 0 0.0 0.0 0.00 0.00 0.00 5 1009.1
20260830175704 85 90 0.0 1.0 0.00 0.00 0.00 6 1009.0
20260830175535 85 90 0.0 1.0 0.00 0.00 0.00 6 1009.0
20260830175049 86 90 3.0 4.0 0.00 0.00 0.00 5 1009.0
20260830174741 86 112 2.0 4.0 0.00 0.00 0.00 5 1008.9
20260830174555 86 112 3.0 4.0 0.00 0.00 0.00 5 1008.8
20260830174129 86 90 3.0 6.0 0.00 0.00 0.00 5 1008.8
20260830173745 86 112 6.0 9.0 0.00 0.00 0.00 5 1008.7
20260830173710 86 112 6.0 9.0 0.00 0.00 0.00 5 1008.7
20260830173245 86 90 6.0 6.0 0.00 0.00 0.00 5 1008.8
20260830172753 87 112 4.0 8.0 0.00 0.00 0.00 5 1008.9
20260830172750 87 112 4.0 8.0 0.00 0.00 0.00 5 1008.9
20260830172404 87 135 4.0 6.0 0.00 0.00 0.00 5 1008.9
20260830172248 87 112 3.0 6.0 0.00 0.00 0.00 5 1008.9
20260830171942 87 90 5.0 6.0 0.00 0.00 0.00 5 1008.9
20260830171452 87 112 7.0 11.0 0.00 0.00 0.00 5 1008.8
20260830171324 87 67 6.0 9.0 0.00 0.00 0.00 5 1008.8
20260830171023 87 112 5.0 6.0 0.00 0.00 0.00 5 1008.8
20260830170523 88 112 5.0 9.0 0.00 0.00 0.00 5 1008.8
20260830170458 88 90 4.0 9.0 0.00 0.00 0.00 5 1008.8
20260830170051 89 112 6.0 9.0 0.00 0.00 0.00 4 1008.9
20260830165643 89 135 3.0 4.0 0.00 0.00 0.00 4 1008.7
20260830165058 89 90 6.0 10.0 0.00 0.00 0.00 4 1008.8
20260830164637 89 90 8.0 11.0 0.00 0.00 0.00 4 1008.8
20260830164227 89 112 7.0 10.0 0.00 0.00 0.00 5 1008.9
20260830164126 89 112 7.0 10.0 0.00 0.00 0.00 5 1008.8
20260830163824 89 67 8.0 11.0 0.00 0.00 0.00 5 1008.8
20260830163328 89 112 9.0 13.0 0.00 0.00 0.00 5 1008.7
20260830163215 89 112 5.0 10.0 0.00 0.00 0.00 5 1008.8
20260830162912 88 90 6.0 10.0 0.00 0.00 0.00 5 1008.8
20260830162447 88 90 10.0 15.0 0.00 0.00 0.00 5 1008.8
20260830162355 88 112 8.0 12.0 0.00 0.00 0.00 5 1009.0
20260830162043 88 112 9.0 13.0 0.00 0.00 0.00 5 1008.9
20260830161604 88 112 11.0 17.0 0.00 0.00 0.00 5 1009.0
20260830161531 88 112 11.0 15.0 0.00 0.00 0.00 5 1008.7
20260830161137 88 90 9.0 15.0 0.00 0.00 0.00 5 1009.0
20260830160648 88 90 11.0 15.0 0.00 0.00 0.00 5 1008.8
20260830160215 88 112 10.0 15.0 0.00 0.00 0.00 5 1008.9
20260830155751 88 112 10.0 15.0 0.00 0.00 0.00 5 1009.0
20260830155456 88 90 10.0 15.0 0.00 0.00 0.00 5 1009.0
20260830155037 89 67 12.0 19.0 0.00 0.00 0.00 5 1009.1
20260830154618 89 112 10.0 15.0 0.00 0.00 0.00 5 1009.1
20260830154135 89 90 12.0 17.0 0.00 0.00 0.00 5 1009.2
20260830153717 89 112 9.0 13.0 0.00 0.00 0.00 5 1009.2
20260830153252 89 112 8.0 11.0 0.00 0.00 0.00 5 1009.3
20260830152757 89 90 9.0 15.0 0.00 0.00 0.00 5 1009.2
20260830152402 89 90 9.0 13.0 0.00 0.00 0.00 5 1009.2
20260830151943 89 67 10.0 15.0 0.00 0.00 0.00 5 1009.4
20260830151524 89 112 8.0 13.0 0.00 0.00 0.00 5 1009.5
20260830151040 89 112 7.0 10.0 0.00 0.00 0.00 5 1009.5
20260830150624 89 112 9.0 12.0 0.00 0.00 0.00 5 1009.5
20260830150158 89 112 6.0 10.0 0.00 0.00 0.00 5 1009.5
20260830145704 89 112 10.0 15.0 0.00 0.00 0.00 5 1009.8
20260830145333 89 90 9.0 13.0 0.00 0.00 0.00 5 1009.7
20260830145249 89 45 9.0 15.0 0.00 0.00 0.00 5 1009.7
20260830144857 89 112 9.0 12.0 0.00 0.00 0.00 5 1009.8
20260830144452 89 90 9.0 12.0 0.00 0.00 0.00 5 1009.8
20260830144355 89 67 9.0 18.0 0.00 0.00 0.00 5 1009.8
20260830144013 88 67 8.0 11.0 0.00 0.00 0.00 5 1009.8
20260830143528 89 112 9.0 15.0 0.00 0.00 0.00 5 1009.9
20260830143113 89 112 9.0 12.0 0.00 0.00 0.00 5 1009.9
20260830142658 89 112 9.0 15.0 0.00 0.00 0.00 5 1010.0
20260830142257 89 67 9.0 15.0 0.00 0.00 0.00 5 1010.0
20260830141857 89 90 10.0 15.0 0.00 0.00 0.00 4 1010.2
20260830141457 89 67 7.0 12.0 0.00 0.00 0.00 5 1010.2
20260830141401 88 67 9.0 15.0 0.00 0.00 0.00 5 1010.2
20260830141019 88 135 10.0 13.0 0.00 0.00 0.00 5 1010.2
20260830140534 89 135 9.0 12.0 0.00 0.00 0.00 5 1010.3
20260830140119 88 90 10.0 17.0 0.00 0.00 0.00 5 1010.2
20260830135708 87 90 9.0 15.0 0.00 0.00 0.00 5 1010.5
20260830135533 87 90 9.0 15.0 0.00 0.00 0.00 5 1010.5
20260830135341 87 67 9.0 12.0 0.00 0.00 0.00 6 1010.6
20260830135040 87 67 12.0 18.0 0.00 0.00 0.00 6 1010.7
20260830134615 86 90 11.0 15.0 0.00 0.00 0.00 6 1010.7
20260830134449 86 67 9.0 17.0 0.00 0.00 0.00 6 1010.7
20260830134155 86 112 12.0 18.0 0.00 0.00 0.00 6 1010.8
20260830133655 85 90 12.0 17.0 0.00 0.00 0.00 6 1010.8
20260830133620 85 90 12.0 17.0 0.00 0.00 0.00 6 1010.8
20260830133205 86 112 9.0 13.0 0.00 0.00 0.00 6 1010.7
20260830132759 85 90 12.0 19.0 0.00 0.00 0.00 6 1010.9
20260830132754 85 90 12.0 19.0 0.00 0.00 0.00 6 1010.9
20260830132509 85 45 11.0 15.0 0.00 0.00 0.00 7 1010.9
20260830132414 85 45 11.0 15.0 0.00 0.00 0.00 7 1010.9
20260830131918 84 112 12.0 17.0 0.00 0.00 0.00 7 1011.1
20260830131546 84 90 12.0 18.0 0.00 0.00 0.00 7 1011.2
20260830131445 85 45 10.0 19.0 0.00 0.00 0.00 7 1011.1
20260830131020 84 90 10.0 12.0 0.00 0.00 0.00 7 1011.1
20260830130649 84 112 9.0 13.0 0.00 0.00 0.00 7 1011.3
20260830130605 83 90 12.0 19.0 0.00 0.00 0.00 7 1011.2
20260830130157 84 67 11.0 15.0 0.00 0.00 0.00 7 1011.4
20260830125705 83 45 12.0 17.0 0.00 0.00 0.00 7 1011.5
20260830125548 83 45 12.0 17.0 0.00 0.00 0.00 7 1011.5
20260830125446 84 90 9.0 15.0 0.00 0.00 0.00 7 1011.6
20260830125030 83 67 11.0 19.0 0.00 0.00 0.00 7 1011.4
20260830124615 84 112 11.0 17.0 0.00 0.00 0.00 7 1011.5
20260830124544 83 135 9.0 12.0 0.00 0.00 0.00 7 1011.5
20260830124118 83 90 11.0 18.0 0.00 0.00 0.00 7 1011.6
20260830123701 83 67 13.0 18.0 0.00 0.00 0.00 7 1011.6
20260830123630 83 67 13.0 18.0 0.00 0.00 0.00 7 1011.6
20260830123201 84 135 8.0 13.0 0.00 0.00 0.00 7 1011.8
20260830122711 83 90 14.0 17.0 0.00 0.00 0.00 7 1011.8
20260830122423 83 112 11.0 18.0 0.00 0.00 0.00 7 1011.8
20260830122001 83 90 11.0 15.0 0.00 0.00 0.00 7 1012.0
20260830121656 83 90 9.0 15.0 0.00 0.00 0.00 7 1011.9
20260830121526 83 90 12.0 18.0 0.00 0.00 0.00 7 1011.9
20260830121040 82 45 12.0 15.0 0.00 0.00 0.00 7 1012.0
20260830120655 83 67 11.0 15.0 0.00 0.00 0.00 7 1011.9
20260830120623 83 67 11.0 15.0 0.00 0.00 0.00 7 1011.9
20260830120158 82 135 11.0 15.0 0.00 0.00 0.00 7 1012.1
20260830115707 83 67 9.0 17.0 0.00 0.00 0.00 7 1012.1
20260830115704 83 67 9.0 17.0 0.00 0.00 0.00 7 1012.1
20260830115453 82 112 14.0 19.0 0.00 0.00 0.00 7 1012.2
20260830115050 82 90 11.0 17.0 0.00 0.00 0.00 7 1012.2
20260830114531 82 67 13.0 18.0 0.00 0.00 0.00 7 1012.1
20260830114106 82 112 9.0 15.0 0.00 0.00 0.00 7 1012.3
20260830113612 82 67 9.0 13.0 0.00 0.00 0.00 7 1012.3
20260830113203 82 67 10.0 17.0 0.00 0.00 0.00 7 1012.4
20260830112757 81 90 14.0 18.0 0.00 0.00 0.00 7 1012.4
20260830112228 82 135 10.0 15.0 0.00 0.00 0.00 7 1012.5
20260830111823 82 90 11.0 15.0 0.00 0.00 0.00 7 1012.5
20260830111353 82 112 8.0 11.0 0.00 0.00 0.00 7 1012.6
20260830110948 82 67 11.0 15.0 0.00 0.00 0.00 7 1012.5
20260830110546 83 90 9.0 17.0 0.00 0.00 0.00 6 1012.5
20260830110054 82 90 10.0 15.0 0.00 0.00 0.00 6 1012.6
20260830105628 82 67 11.0 13.0 0.00 0.00 0.00 6 1012.6
20260830105441 82 67 11.0 15.0 0.00 0.00 0.00 6 1012.6
20260830105016 83 90 9.0 13.0 0.00 0.00 0.00 6 1012.6
20260830104531 82 112 9.0 12.0 0.00 0.00 0.00 6 1012.6
20260830104111 82 112 9.0 13.0 0.00 0.00 0.00 6 1012.7
20260830103611 82 67 9.0 12.0 0.00 0.00 0.00 6 1012.8
20260830103121 83 135 9.0 13.0 0.00 0.00 0.00 6 1012.7
20260830102709 83 67 6.0 11.0 0.00 0.00 0.00 6 1012.6
20260830102455 82 90 9.0 11.0 0.00 0.00 0.00 6 1012.7
20260830102352 83 90 9.0 15.0 0.00 0.00 0.00 6 1012.7
20260830101901 82 90 9.0 15.0 0.00 0.00 0.00 6 1012.8
20260830101636 82 67 10.0 13.0 0.00 0.00 0.00 6 1012.8
20260830101513 82 67 10.0 13.0 0.00 0.00 0.00 6 1012.8
20260830101439 82 67 10.0 13.0 0.00 0.00 0.00 6 1012.8
20260830101014 82 67 9.0 13.0 0.00 0.00 0.00 6 1012.8
20260830100647 82 90 7.0 11.0 0.00 0.00 0.00 6 1013.0
20260830100602 81 67 12.0 15.0 0.00 0.00 0.00 6 1012.8
20260830100155 82 90 9.0 11.0 0.00 0.00 0.00 6 1012.9
20260830095704 82 90 9.0 12.0 0.00 0.00 0.00 6 1012.9
20260830095702 82 90 9.0 12.0 0.00 0.00 0.00 6 1012.9
20260830095451 82 67 7.0 11.0 0.00 0.00 0.00 6 1013.0
20260830095048 82 90 8.0 15.0 0.00 0.00 0.00 6 1012.9
20260830094608 82 67 10.0 12.0 0.00 0.00 0.00 6 1013.2
20260830094143 82 67 8.0 11.0 0.00 0.00 0.00 6 1013.1
20260830093725 82 90 7.0 10.0 0.00 0.00 0.00 6 1013.2
20260830093252 82 90 11.0 13.0 0.00 0.00 0.00 6 1013.1
20260830092758 81 90 9.0 12.0 0.00 0.00 0.00 6 1013.0
20260830092627 81 90 9.0 12.0 0.00 0.00 0.00 6 1013.0
20260830092436 81 67 6.0 10.0 0.00 0.00 0.00 6 1013.1
20260830091940 81 22 7.0 9.0 0.00 0.00 0.00 6 1013.1
20260830091652 81 67 8.0 12.0 0.00 0.00 0.00 6 1013.0
20260830091522 81 90 6.0 10.0 0.00 0.00 0.00 6 1013.1
20260830091038 81 90 8.0 15.0 0.00 0.00 0.00 6 1013.1
20260830090656 81 112 8.0 10.0 0.00 0.00 0.00 6 1013.0
20260830090621 81 112 8.0 10.0 0.00 0.00 0.00 6 1013.0
20260830090156 81 112 6.0 8.0 0.00 0.00 0.00 6 1013.2
20260830085701 81 67 5.0 6.0 0.00 0.00 0.00 6 1013.2
20260830085429 81 67 5.0 8.0 0.00 0.00 0.00 6 1013.0
20260830084933 81 90 4.0 6.0 0.00 0.00 0.00 6 1013.2
20260830084639 81 67 3.0 4.0 0.00 0.00 0.00 6 1013.2
20260830084450 80 112 3.0 6.0 0.00 0.00 0.00 6 1013.2
20260830084027 80 112 3.0 4.0 0.00 0.00 0.00 6 1013.2
20260830083640 80 112 5.0 6.0 0.00 0.00 0.00 6 1013.2
20260830083607 80 112 5.0 6.0 0.00 0.00 0.00 6 1013.2
20260830083142 80 67 3.0 6.0 0.00 0.00 0.00 6 1013.1
20260830082647 80 67 0.0 2.0 0.00 0.00 0.00 6 1013.2
20260830082300 80 90 2.0 3.0 0.00 0.00 0.00 6 1013.2
20260830081856 80 292 0.0 1.0 0.00 0.00 0.00 6 1013.1
20260830081437 80 247 1.0 3.0 0.00 0.00 0.00 6 1013.1
20260830081021 80 247 0.0 1.0 0.00 0.00 0.00 6 1013.0
20260830080501 78 247 1.0 2.0 0.00 0.00 0.00 7 1013.1
20260830080057 77 247 1.0 2.0 0.00 0.00 0.00 7 1013.0
20260830075656 78 0 0.0 0.0 0.00 0.00 0.00 7 1013.1
20260830075428 78 0 0.0 1.0 0.00 0.00 0.00 7 1013.1
20260830075010 78 0 0.0 0.0 0.00 0.00 0.00 7 1013.1
20260830074524 77 0 0.0 0.0 0.00 0.00 0.00 7 1013.1
20260830074045 77 0 0.0 0.0 0.00 0.00 0.00 7 1013.1
20260830073646 76 0 0.0 0.0 0.00 0.00 0.00 7 1013.1
20260830073615 76 0 0.0 0.0 0.00 0.00 0.00 7 1013.1
20260830073143 76 292 0.0 1.0 0.00 0.00 0.00 7 1013.2
20260830072649 75 292 1.0 2.0 0.00 0.00 0.00 7 1013.1
20260830072647 75 292 1.0 2.0 0.00 0.00 0.00 7 1013.1
20260830072258 75 292 1.0 2.0 0.00 0.00 0.00 7 1013.2
20260830071820 74 270 1.0 2.0 0.00 0.00 0.00 7 1013.1
20260830071420 73 270 1.0 1.0 0.00 0.00 0.00 7 1013.1
20260830070940 73 0 0.0 1.0 0.00 0.00 0.00 8 1013.1
20260830070507 72 0 0.0 1.0 0.00 0.00 0.00 8 1012.9
20260830070108 72 292 0.0 1.0 0.00 0.00 0.00 8 1012.9
20260830065657 71 0 0.0 0.0 0.00 0.00 0.00 8 1012.9
20260830065438 71 0 0.0 1.0 0.00 0.00 0.00 8 1012.9
20260830065249 71 292 2.0 2.0 0.00 0.00 0.00 8 1013.0
20260830064844 70 292 3.0 3.0 0.00 0.00 0.00 8 1013.1
20260830064522 70 292 2.0 3.0 0.00 0.00 0.00 8 1012.8
20260830064442 70 292 2.0 3.0 0.00 0.00 0.00 8 1012.7
20260830064005 69 270 2.0 3.0 0.00 0.00 0.00 8 1012.8
20260830063522 69 292 2.0 3.0 0.00 0.00 0.00 8 1012.8
20260830063105 68 292 2.0 3.0 0.00 0.00 0.00 8 1012.7
20260830062651 68 292 1.0 2.0 0.00 0.00 0.00 8 1012.7
20260830062556 68 292 1.0 2.0 0.00 0.00 0.00 8 1012.7
20260830062147 67 292 2.0 2.0 0.00 0.00 0.00 8 1012.7
20260830061742 67 292 2.0 2.0 0.00 0.00 0.00 9 1012.8
20260830061324 66 292 3.0 3.0 0.00 0.00 0.00 9 1012.8
20260830060916 66 292 3.0 3.0 0.00 0.00 0.00 9 1012.9
20260830060516 66 270 3.0 3.0 0.00 0.00 0.00 9 1012.8
20260830060050 66 292 2.0 3.0 0.00 0.00 0.00 9 1012.7
20260830055638 65 270 3.0 3.0 0.00 0.00 0.00 9 1012.8
20260830055505 65 270 3.0 3.0 0.00 0.00 0.00 9 1012.8
20260830055339 66 270 2.0 3.0 0.00 0.00 0.00 9 1012.8
20260830055052 66 270 2.0 3.0 0.00 0.00 0.00 9 1012.8
20260830054608 65 292 2.0 3.0 0.00 0.00 0.00 9 1012.8
20260830054442 65 270 3.0 3.0 0.00 0.00 0.00 9 1012.8
20260830054149 66 270 3.0 3.0 0.00 0.00 0.00 9 1012.9